User: anonymous   Login
Location: DARK SKY Beskydy - Park tmavé oblohy, www.darkskybeskydy.cz
(49.4926°N, 18.5016°E)
Time: 19:54:22
(UTC+02:00)
Language:

deb Explorer IX - Orbit

View from above orbital plane
View from above orbital plane
View from above satellite
View from above satellite

Ground track
Ground track

The orbit data is extracted from the following two-line orbital elements,

1 00085U 61004C   24204.93652754  .00033639  00000-0  42828-2 0  9997
2 00085  38.7374 172.6906 0260446 209.5174 149.0657 14.59834223145618
Epoch (UTC): 22 July 2024 22:28:35
Eccentricity: 0.0260446
inclination: 38.7374°
perigee height: 509 km
apogee height: 878 km
right ascension of ascending node: 172.6906°
argument of perigee: 209.5174°
revolutions per day: 14.59834223
mean anomaly at epoch: 149.0657°
orbit number at epoch: 14561

The dashed part of the orbit path shows where the satellite is in the earth's shadow,  

DLR